Flag for Germany Weather past 2 weeks in Rotenburg (Wümme), Lower Saxony, Germany

Now
53 °F

Fog.


Feels Like: 53 °F
Forecast: 48 / 68 °F
Wind: 2 mph from Northeast

Location: Bremen


UV Index: 3 (Moderate)

Visibility: 4 mi


Pressure: 30.15 "Hg

Humidity: 96%

Dew point: 52 °F

Location of Rotenburg (Wümme)Location

Historic Weather in Rotenburg (Wümme)

°F

Rotenburg (Wümme) temperature yesterday

Maximum temperature yesterday: 68 °F (at 3:00 PM)
Minimum temperature yesterday: 42 °F (at 7:00 AM)
Average temperature yesterday: 56 °F

Past Weeks' High & Low Weather Summary

 TemperatureHumidityPressure
High69 °F (Apr 20, 6:00 PM)100% (Apr 12, 3:00 AM)30.47 "Hg (Apr 12, 3:00 AM)
Low29 °F (Apr 16, 7:00 AM)40% (Apr 17, 3:00 PM)29.70 "Hg (Apr 21, 5:00 PM)
Average50 °F78%30.03 "Hg
* Reported Midnight between Apr 8 and Apr 9 — Midnight between Apr 23 and Apr 24, Rotenburg (Wümme), Weather by CustomWeather, © 2014

Note: Actual official high and low records may vary slightly from our data, if they occured in-between our weather recording intervals... More about our weather records

Advertising

Historic Weather Conditions — Data for Previous 24 hours

 ConditionsComfort  
Time TempWeatherWind HumidityBarometerVisibility
12:00 AM
Apr 24
53 °FFog.3 mph96%30.14 "Hg4 mi
11:00 PM
Apr 23
55 °FFog.5 mph94%30.14 "Hg4 mi
10:00 PM56 °FFog.2 mph90%30.14 "Hg7 mi
9:00 PM57 °FThunderstorms. Passing clouds.2 mph88%30.11 "Hg8 mi
8:00 PM57 °FThunderstorms. Overcast.3 mph91%30.10 "Hg7 mi
7:00 PM56 °FThundershowers. Overcast.5 mph82%30.11 "Hg16 mi
6:00 PM59 °FThundershowers. Overcast.7 mph86%30.10 "Hg9 mi
5:00 PM63 °FThundershowers. Overcast.6 mph76%30.09 "Hg7 mi
4:00 PM66 °FOvercast.1 mph59%30.09 "Hg11 mi
3:00 PM68 °FPartly sunny.2 mph53%30.10 "Hg11 mi
2:00 PM67 °FOvercast.2 mph63%30.11 "Hg11 mi
1:00 PM65 °FPartly sunny.2 mph68%30.11 "Hg7 mi
12:00 PM63 °FPassing clouds.2 mph71%30.11 "Hg5 mi
11:00 AM60 °FFog.2 mph78%30.11 "Hg4 mi
10:00 AM59 °FFog.2 mph84%30.10 "Hg2 mi
9:00 AM53 °FFog.1 mph99%30.09 "Hg2 mi
8:00 AM48 °FFog.2 mph99%30.08 "Hg1 mi
7:00 AM42 °FFog.2 mph99%30.07 "Hg0 mi
6:00 AM44 °FFog.2 mph99%30.06 "Hg1 mi
5:00 AM45 °FFog.2 mph97%30.05 "Hg1 mi
4:00 AM49 °FPassing clouds.1 mph96%30.03 "Hg9 mi
3:00 AM50 °FPassing clouds.2 mph94%30.02 "Hg12 mi
2:00 AM50 °FPassing clouds.1 mph95%30.01 "Hg16 mi
1:00 AM52 °FPassing clouds.1 mph94%30.00 "Hg16 mi
Weather by CustomWeather, © 2014

See weather overview